sat.trackr.live / text

‹ back to catalog

STARLINK-32541

NORAD 61916 · 2024-207E

PAYLOAD ACTIVE UNKNOWN

§ Identity

Operator
Country
US
Launch date
2024-11-11
Launch site
AFETR
Launch vehicle
Mass (kg)
RCS (m²)

Purposes: comms

External: N2YO · Heavens-Above · Gunter

§ Orbital elements

Epoch: 2026-05-25T04:00:03.998880Z

Period
94.27 min
Inclination
42.9994°
Eccentricity
0.0001387
Mean motion
15.27571434 rev/d
Perigee alt
482.1 km
Apogee alt
484.0 km
Semi-major
6,861.2 km
B*
1.2843e-3
RAAN
213.5698°
Arg perigee
265.9527°
Mean anomaly
147.7186°
Rev number
585

§ Raw data

STARLINK-325411 61916U 24207E   26145.16671295  .00035239  00000+0  12843-2 0  99942 61916  42.9994 213.5698 0001387 265.9527 147.7186 15.27571434  5852

JSON: /api/v1/satellites/61916 · /tle

For live sub-satellite position, see the globe view (requires WebGL).

§ Visibility from observer

Set your observer location to see the next 7 days of passes ≥ 10°. The values pass through the URL so the page stays shareable.

No JS? Fill the form by hand. The geolocation button needs JavaScript.